�������l�o���
Date,Time,MP-1(��Sv/h),MP-2(��Sv/h),MP-3(��Sv/h),MP-4(��Sv/h),MP-5(��Sv/h),MP-6(��Sv/h),MP-7(��Sv/h),MP-8(��Sv/h),����,����(m/s),���J
2016/07/21,00:00,1.320,2.139,2.008,2.286,1.673,0.641,1.210,1.040,�k��,2.9,��
2016/07/21,00:10,1.319,2.137,2.009,2.283,1.673,0.640,1.206,1.038,�k�k��,2.7,��
2016/07/21,00:20,1.318,2.137,2.006,2.287,1.669,0.640,1.209,1.040,�k�k��,1.7,��
2016/07/21,00:30,1.323,2.137,2.008,2.283,1.668,0.639,1.208,1.039,�k�k��,2.5,��
2016/07/21,00:40,1.319,2.137,2.009,2.284,1.670,0.641,1.206,1.042,�k�k��,1.8,��
2016/07/21,00:50,1.317,2.135,2.007,2.284,1.673,0.640,1.206,1.041,�k�k��,1.6,��
2016/07/21,01:00,1.319,2.140,2.005,2.283,1.671,0.639,1.207,1.041,�k�k��,1.9,��
2016/07/21,01:10,1.321,2.139,2.008,2.285,1.672,0.639,1.207,1.042,�k�k��,1.3,��
2016/07/21,01:20,1.322,2.136,2.007,2.286,1.673,0.641,1.206,1.040,�k,2.2,��
2016/07/21,01:30,1.319,2.139,2.005,2.287,1.672,0.639,1.208,1.041,�k�k��,2.3,��
2016/07/21,01:40,1.320,2.139,2.010,2.282,1.671,0.641,1.206,1.040,�k�k��,2.5,��
2016/07/21,01:50,1.321,2.138,2.004,2.285,1.669,0.640,1.210,1.041,�k�k��,2.8,��
2016/07/21,02:00,1.320,2.137,2.006,2.286,1.674,0.640,1.206,1.039,�k�k��,2.6,��
2016/07/21,02:10,1.318,2.136,2.008,2.283,1.674,0.640,1.208,1.040,�k�k��,2.5,��
2016/07/21,02:20,1.320,2.135,2.006,2.282,1.669,0.641,1.208,1.040,�k,2.3,��
2016/07/21,02:30,1.321,2.138,2.005,2.282,1.672,0.641,1.209,1.041,�k�k��,2.8,��
2016/07/21,02:40,1.319,2.136,2.006,2.288,1.671,0.639,1.209,1.039,�k�k��,3.1,��
2016/07/21,02:50,1.321,2.137,2.007,2.282,1.671,0.641,1.208,1.039,�k�k��,3.3,��
2016/07/21,03:00,1.320,2.138,2.004,2.285,1.675,0.639,1.206,1.042,�k�k��,2.9,��
2016/07/21,03:10,1.320,2.137,2.007,2.282,1.673,0.641,1.208,1.040,�k�k��,2.9,��
2016/07/21,03:20,1.320,2.137,2.006,2.285,1.672,0.641,1.207,1.040,�k�k��,2.6,��
2016/07/21,03:30,1.322,2.138,2.009,2.287,1.670,0.640,1.210,1.041,�k�k��,2.6,��
2016/07/21,03:40,1.320,2.137,2.006,2.284,1.673,0.640,1.208,1.041,�k�k��,2.9,��
2016/07/21,03:50,1.320,2.133,2.006,2.282,1.674,0.641,1.206,1.041,�k�k��,3.1,��
2016/07/21,04:00,1.320,2.137,2.009,2.287,1.671,0.638,1.208,1.042,�k�k��,3.1,��
2016/07/21,04:10,1.319,2.139,2.007,2.282,1.672,0.640,1.209,1.040,�k�k��,3.5,��
2016/07/21,04:20,1.321,2.137,2.007,2.283,1.672,0.640,1.206,1.039,�k�k��,3.6,�L
2016/07/21,04:30,1.320,2.137,2.004,2.284,1.672,0.642,1.209,1.043,�k�k��,2.8,��
2016/07/21,04:40,1.322,2.136,2.008,2.287,1.670,0.642,1.205,1.040,�k�k��,3.2,��
2016/07/21,04:50,1.322,2.136,2.006,2.284,1.668,0.641,1.207,1.041,�k�k��,3.0,��
2016/07/21,05:00,1.321,2.136,2.006,2.284,1.670,0.640,1.207,1.040,�k�k��,3.0,��
2016/07/21,05:10,1.320,2.137,2.004,2.282,1.671,0.638,1.208,1.040,�k�k��,2.7,��
2016/07/21,05:20,1.321,2.138,2.005,2.284,1.670,0.638,1.207,1.041,�k,1.8,��
2016/07/21,05:30,1.319,2.137,2.006,2.282,1.668,0.640,1.209,1.039,�k��,2.2,��
2016/07/21,05:40,1.320,2.137,2.005,2.285,1.667,0.640,1.206,1.040,�k�k��,2.8,��
2016/07/21,05:50,1.320,2.139,2.009,2.284,1.668,0.639,1.208,1.041,�k�k��,2.5,��
2016/07/21,06:00,1.322,2.139,1.994,2.282,1.669,0.637,1.209,1.040,�k�k��,3.0,��
2016/07/21,06:10,1.321,2.137,1.992,2.284,1.664,0.639,1.207,1.039,�k,3.0,��
2016/07/21,06:20,1.319,2.135,2.000,2.281,1.667,0.638,1.209,1.038,�k,2.6,��
2016/07/21,06:30,1.322,2.139,1.995,2.284,1.669,0.640,1.208,1.041,�k,2.8,��
2016/07/21,06:40,1.321,2.138,1.998,2.285,1.669,0.639,1.208,1.041,�k�k��,1.6,��
2016/07/21,06:50,1.319,2.135,1.994,2.281,1.665,0.638,1.208,1.038,�k�k��,1.9,��
2016/07/21,07:00,1.322,2.137,1.998,2.282,1.666,0.638,1.208,1.041,�k�k��,2.0,��
2016/07/21,07:10,1.322,2.135,1.999,2.285,1.665,0.638,1.210,1.042,�k,1.9,��
2016/07/21,07:20,1.321,2.135,2.001,2.286,1.664,0.639,1.207,1.039,�k�k��,2.1,��
2016/07/21,07:30,1.322,2.135,2.001,2.284,1.664,0.638,1.208,1.040,�k�k��,1.7,��
2016/07/21,07:40,1.320,2.136,2.006,2.285,1.662,0.638,1.209,1.039,�k��,1.6,��
2016/07/21,07:50,1.318,2.131,2.005,2.282,1.661,0.636,1.208,1.039,�k��,3.0,��
2016/07/21,08:00,1.320,2.133,2.006,2.285,1.658,0.637,1.206,1.038,�k��,3.8,��
2016/07/21,08:10,1.316,2.136,2.001,2.282,1.662,0.636,1.207,1.038,�k��,3.9,��
2016/07/21,08:20,1.317,2.133,2.000,2.285,1.662,0.637,1.205,1.038,�k��,3.4,��
2016/07/21,08:30,1.318,2.132,1.999,2.283,1.664,0.636,1.205,1.039,�k��,3.4,��
2016/07/21,08:40,1.317,2.134,2.001,2.285,1.664,0.634,1.205,1.039,�k��,3.4,��
2016/07/21,08:50,1.320,2.134,2.003,2.282,1.663,0.636,1.205,1.036,�k��,3.8,��
2016/07/21,09:00,1.317,2.132,2.000,2.285,1.665,0.636,1.206,1.037,�k��,3.3,��
2016/07/21,09:10,1.318,2.132,1.999,2.286,1.669,0.635,1.210,1.036,�k��,3.3,��
2016/07/21,09:20,1.320,2.132,1.999,2.286,1.664,0.638,1.207,1.038,�k��,2.4,��
2016/07/21,09:30,1.321,2.135,2.002,2.285,1.665,0.636,1.206,1.037,�k�k��,2.9,��
2016/07/21,09:40,1.316,2.133,2.000,2.287,1.667,0.637,1.206,1.035,�k��,3.3,��
2016/07/21,09:50,1.319,2.129,2.002,2.288,1.665,0.637,1.205,1.036,���k��,3.3,��
2016/07/21,10:00,1.318,2.114,1.998,2.281,1.664,0.639,1.207,1.038,���k��,3.2,��
2016/07/21,10:10,1.318,2.115,2.000,2.283,1.663,0.637,1.205,1.035,�k��,3.3,��
2016/07/21,10:20,1.315,-,2.005,2.284,1.660,0.637,1.208,1.038,�k��,3.5,��
2016/07/21,10:30,1.306,-,2.003,2.285,1.663,0.636,1.208,1.037,�k��,3.8,��
2016/07/21,10:40,1.305,-,2.000,2.286,1.662,0.636,1.207,1.038,�k��,3.6,��
2016/07/21,10:50,1.304,-,1.997,2.282,1.662,0.637,1.207,1.038,�k��,3.1,��
2016/07/21,11:00,1.317,-,1.997,2.284,1.663,0.637,1.206,1.035,�k��,3.2,��
2016/07/21,11:10,1.318,2.123,1.999,2.288,1.660,0.636,1.208,1.038,�k�k��,3.4,��
2016/07/21,11:20,1.319,2.134,1.998,2.286,1.665,0.638,1.206,1.037,�k��,3.0,��
2016/07/21,11:30,1.317,2.138,2.001,2.289,1.665,0.637,1.207,1.037,�k�k��,3.0,��
2016/07/21,11:40,1.319,2.135,1.999,2.287,1.665,0.638,1.208,1.039,�k�k��,3.1,��
2016/07/21,11:50,1.321,2.133,1.990,2.290,1.665,0.636,1.209,1.037,�k��,3.3,��
2016/07/21,12:00,1.318,2.134,1.967,2.287,1.664,0.637,1.207,1.039,���k��,3.1,��
2016/07/21,12:10,1.320,2.130,1.971,2.287,1.667,0.638,1.209,1.037,�k�k��,2.7,��
2016/07/21,12:20,1.321,2.132,1.975,2.285,1.663,0.638,1.207,1.038,�k��,2.7,��
2016/07/21,12:30,1.319,2.134,1.996,2.288,1.666,0.636,1.208,1.037,�k�k��,3.1,��
2016/07/21,12:40,1.321,2.127,2.003,2.287,1.665,0.638,1.208,1.038,�k�k��,3.8,��
2016/07/21,12:50,1.320,2.124,2.005,2.283,1.669,0.638,1.208,1.039,�k��,2.8,��
2016/07/21,13:00,1.322,2.131,2.004,2.290,1.666,0.638,1.209,1.040,�k��,2.8,��
2016/07/21,13:10,1.322,2.132,2.001,2.285,1.665,0.639,1.209,1.036,�k�k��,2.7,��
2016/07/21,13:20,1.319,2.135,1.993,2.286,1.670,0.639,1.209,1.036,�k�k��,2.9,��
2016/07/21,13:30,1.320,2.136,1.994,2.282,1.671,0.640,1.208,1.040,�k�k��,2.9,��
2016/07/21,13:40,1.321,2.133,1.984,2.286,1.668,0.640,1.210,1.040,�k�k��,2.5,��
2016/07/21,13:50,1.320,2.135,1.991,2.285,1.668,0.637,1.207,1.039,�k�k��,2.9,��
2016/07/21,14:00,1.319,2.135,1.992,2.288,1.672,0.639,1.207,1.040,�k��,2.5,��
2016/07/21,14:10,1.320,2.134,1.989,2.286,1.672,0.638,1.208,1.038,���k��,2.6,��
2016/07/21,14:20,1.322,2.134,1.998,2.288,1.677,0.639,1.207,1.038,�k��,2.1,��
2016/07/21,14:30,1.320,2.134,1.998,2.288,1.676,0.638,1.210,1.036,�k��,2.0,��
2016/07/21,14:40,1.321,2.136,2.000,2.289,1.674,0.638,1.209,1.041,�k�k��,3.0,��
2016/07/21,14:50,1.320,2.137,2.001,2.293,1.672,0.638,1.207,1.036,�k��,2.8,��
2016/07/21,15:00,1.322,2.139,1.999,2.290,1.676,0.641,1.206,1.036,�k��,2.4,��
2016/07/21,15:10,1.320,2.139,2.001,2.291,1.678,0.640,1.204,1.038,�k�k��,2.4,��
2016/07/21,15:20,1.322,2.138,2.004,2.293,1.674,0.639,1.207,1.041,�k�k��,2.2,��
2016/07/21,15:30,1.322,2.140,2.002,2.287,1.677,0.639,1.208,1.040,�k�k��,2.2,��
2016/07/21,15:40,1.322,2.138,1.999,2.291,1.678,0.639,1.206,1.041,�k��,1.9,��
2016/07/21,15:50,1.321,2.138,2.000,2.290,1.678,0.641,1.208,1.042,�k�k��,1.6,��
2016/07/21,16:00,1.324,2.139,2.001,2.291,1.674,0.640,1.207,1.039,�k��,1.4,��
2016/07/21,16:10,1.323,2.139,2.003,2.293,1.675,0.642,1.209,1.041,���k��,1.7,��
2016/07/21,16:20,1.322,2.137,2.002,2.293,1.677,0.639,1.208,1.040,�k��,1.6,��
2016/07/21,16:30,1.323,2.135,2.001,2.290,1.678,0.640,1.209,1.038,�k�k��,1.9,��
2016/07/21,16:40,1.324,2.139,2.000,2.294,1.676,0.640,1.209,1.040,�k�k��,1.6,��
2016/07/21,16:50,1.325,2.139,2.002,2.290,1.677,0.640,1.209,1.039,�k,1.5,��
2016/07/21,17:00,1.325,2.140,2.003,2.288,1.675,0.639,1.212,1.039,�k�k��,2.0,��
2016/07/21,17:10,1.325,2.142,2.005,2.289,1.676,0.640,1.208,1.040,�k�k��,1.6,��
2016/07/21,17:20,1.323,2.142,2.003,2.290,1.675,0.640,1.208,1.041,�k�k��,1.7,��
2016/07/21,17:30,1.324,2.142,2.004,2.293,1.673,0.638,1.208,1.042,�k��,1.7,��
2016/07/21,17:40,1.323,2.141,2.003,2.289,1.676,0.641,1.209,1.041,�k�k��,1.4,��
2016/07/21,17:50,1.324,2.142,2.005,2.288,1.677,0.640,1.209,1.042,�k�k��,1.4,��
2016/07/21,18:00,1.322,2.138,2.003,2.289,1.674,0.638,1.209,1.038,�k�k��,1.0,��
2016/07/21,18:10,1.323,2.142,2.002,2.296,1.676,0.639,1.207,1.042,�k��,0.9,��
2016/07/21,18:20,1.322,2.142,2.001,2.290,1.677,0.639,1.209,1.041,�k,1.0,��
2016/07/21,18:30,1.324,2.139,2.004,2.292,1.672,0.638,1.208,1.040,���k��,1.1,��
2016/07/21,18:40,1.323,2.142,2.002,2.291,1.675,0.638,1.208,1.041,��,2.1,��
2016/07/21,18:50,1.323,2.140,2.004,2.288,1.674,0.639,1.208,1.042,���k��,1.5,��
2016/07/21,19:00,1.325,2.139,2.001,2.290,1.676,0.640,1.209,1.042,��,2.6,��
2016/07/21,19:10,1.324,2.142,2.002,2.290,1.675,0.639,1.209,1.043,���쐼,2.7,��
2016/07/21,19:20,1.324,2.139,2.002,2.290,1.677,0.640,1.207,1.043,��,2.2,��
2016/07/21,19:30,1.322,2.143,2.004,2.290,1.676,0.641,1.209,1.041,���k��,2.0,��
2016/07/21,19:40,1.325,2.141,2.002,2.293,1.677,0.640,1.211,1.040,��,2.0,��
2016/07/21,19:50,1.324,2.140,2.003,2.288,1.672,0.640,1.211,1.042,���k��,2.7,��
2016/07/21,20:00,1.325,2.140,2.007,2.292,1.675,0.638,1.209,1.042,�k��,2.4,��
2016/07/21,20:10,1.324,2.140,2.003,2.286,1.676,0.639,1.211,1.042,�k��,2.0,��
2016/07/21,20:20,1.322,2.139,2.000,2.291,1.676,0.641,1.210,1.042,�k��,2.6,��
2016/07/21,20:30,1.324,2.139,2.005,2.290,1.677,0.639,1.211,1.041,�k��,3.4,��
2016/07/21,20:40,1.323,2.142,2.004,2.292,1.677,0.640,1.208,1.041,�k��,3.1,��
2016/07/21,20:50,1.325,2.139,2.001,2.290,1.676,0.640,1.207,1.042,�k��,2.8,��
2016/07/21,21:00,1.325,2.139,2.003,2.288,1.677,0.640,1.208,1.043,�k�k��,3.2,��
2016/07/21,21:10,1.324,2.139,2.003,2.289,1.675,0.639,1.208,1.042,�k�k��,3.1,��
2016/07/21,21:20,1.324,2.143,2.003,2.289,1.676,0.640,1.212,1.042,�k�k��,2.0,��
2016/07/21,21:30,1.323,2.140,2.002,2.293,1.675,0.641,1.209,1.041,�k��,2.4,��
2016/07/21,21:40,1.324,2.141,2.003,2.291,1.675,0.641,1.208,1.041,�k��,3.3,��
2016/07/21,21:50,1.326,2.138,2.003,2.290,1.674,0.640,1.211,1.043,�k�k��,3.2,��
2016/07/21,22:00,1.325,2.139,2.002,2.290,1.673,0.640,1.211,1.041,�k�k��,3.4,��
2016/07/21,22:10,1.325,2.140,2.001,2.290,1.674,0.640,1.209,1.041,�k�k��,3.8,��
2016/07/21,22:20,1.323,2.113,1.997,2.288,1.675,0.641,1.208,1.042,�k�k��,2.3,�L
2016/07/21,22:30,1.319,2.108,1.986,2.288,1.669,0.640,1.207,1.041,���쓌,3.5,�L
2016/07/21,22:40,1.318,2.111,1.991,2.287,1.668,0.641,1.206,1.041,�쓌,3.0,��
2016/07/21,22:50,1.319,2.108,1.986,2.284,1.666,0.640,1.203,1.041,�쓌,2.0,��
2016/07/21,23:00,1.318,2.109,1.988,2.284,1.668,0.640,1.209,1.039,��쓌,3.0,��
2016/07/21,23:10,1.319,2.108,1.987,2.284,1.668,0.641,1.205,1.040,��쓌,2.1,��
2016/07/21,23:20,1.318,2.108,1.988,2.282,1.668,0.641,1.206,1.040,��쓌,1.7,��
2016/07/21,23:30,1.318,2.108,1.989,2.281,1.664,0.639,1.209,1.040,��쓌,1.6,��
2016/07/21,23:40,1.315,2.098,1.988,2.282,1.665,0.638,1.208,1.041,�쓌,0.7,��
2016/07/21,23:50,1.317,2.097,1.987,2.281,1.666,0.640,1.206,1.039,-,CALM,��
